TimeEST,TemperatureF,Dew PointF,Humidity,Sea Level PressureIn,VisibilityMPH,Wind Direction,Wind SpeedMPH,Gust SpeedMPH,PrecipitationIn,Events,Conditions,WindDirDegrees,DateUTC
12:34 AM,17.6,12.2,79,30.40,7.0,SW,3.5,-,N/A,,Overcast,220,2013-01-27 05:34:00
12:51 AM,17.1,12.9,84,30.46,7.0,SW,3.5,-,N/A,,Overcast,230,2013-01-27 05:51:00
1:51 AM,17.1,12.9,84,30.48,8.0,Calm,Calm,-,N/A,,Mostly Cloudy,0,2013-01-27 06:51:00
2:51 AM,16.0,12.0,84,30.51,8.0,Calm,Calm,-,N/A,,Mostly Cloudy,0,2013-01-27 07:51:00
3:51 AM,12.9,10.0,88,30.50,9.0,Calm,Calm,-,N/A,,Mostly Cloudy,0,2013-01-27 08:51:00
4:51 AM,10.9,8.1,88,30.48,7.0,SSE,3.5,-,N/A,,Partly Cloudy,150,2013-01-27 09:51:00
5:51 AM,10.9,8.1,88,30.52,7.0,Calm,Calm,-,N/A,,Clear,0,2013-01-27 10:51:00
6:51 AM,6.1,1.9,83,30.53,7.0,ESE,3.5,-,N/A,,Partly Cloudy,110,2013-01-27 11:51:00
7:51 AM,7.0,3.0,84,30.54,5.0,Calm,Calm,-,N/A,,Scattered Clouds,0,2013-01-27 12:51:00
8:51 AM,10.9,8.1,88,30.55,6.0,SSE,5.8,-,N/A,,Mostly Cloudy,150,2013-01-27 13:51:00
9:51 AM,19.9,15.1,81,30.54,9.0,SSE,6.9,-,N/A,,Mostly Cloudy,160,2013-01-27 14:51:00
10:51 AM,23.0,14.0,68,30.55,10.0,SSE,8.1,-,N/A,,Overcast,160,2013-01-27 15:51:00
11:51 AM,25.0,12.9,60,30.52,10.0,SSE,9.2,-,N/A,,Overcast,150,2013-01-27 16:51:00
12:51 PM,26.6,12.2,55,30.45,10.0,South,6.9,-,N/A,,Overcast,190,2013-01-27 17:51:00
1:51 PM,26.1,12.9,58,30.48,10.0,SE,6.9,-,N/A,,Overcast,140,2013-01-27 18:51:00
2:51 PM,27.0,14.0,58,30.45,10.0,ESE,8.1,-,N/A,,Overcast,120,2013-01-27 19:51:00
3:51 PM,27.0,15.1,61,30.44,10.0,ESE,8.1,-,N/A,,Overcast,110,2013-01-27 20:51:00
4:51 PM,27.0,15.1,61,30.43,10.0,ESE,6.9,-,N/A,,Overcast,110,2013-01-27 21:51:00
5:51 PM,27.0,14.0,58,30.40,10.0,ESE,10.4,-,N/A,,Overcast,110,2013-01-27 22:51:00
6:51 PM,27.0,15.1,61,30.41,10.0,SE,9.2,-,N/A,,Overcast,130,2013-01-27 23:51:00
7:51 PM,28.0,15.1,58,30.41,10.0,SE,10.4,-,N/A,,Overcast,140,2013-01-28 00:51:00
8:51 PM,28.0,16.0,61,30.40,10.0,SSE,6.9,-,N/A,,Overcast,150,2013-01-28 01:51:00
9:51 PM,28.0,17.1,63,30.37,4.0,South,6.9,-,0.01,Rain-Snow,Light Freezing Rain,170,2013-01-28 02:51:00
10:08 PM,26.6,17.6,69,30.32,2.5,South,6.9,-,0.01,Rain-Snow,Light Freezing Rain,170,2013-01-28 03:08:00
10:23 PM,26.6,19.4,74,30.32,8.0,South,6.9,-,0.01,Snow,Light Snow,170,2013-01-28 03:23:00
10:41 PM,26.6,19.4,74,30.31,2.0,SE,5.8,-,0.01,Snow,Light Snow,140,2013-01-28 03:41:00
10:51 PM,26.1,21.0,81,30.35,1.0,SE,6.9,-,0.02,Snow,Light Snow,130,2013-01-28 03:51:00
11:51 PM,27.0,23.0,85,30.30,3.0,SE,11.5,-,0.06,Rain-Snow,Light Freezing Rain,130,2013-01-28 04:51:00